sat.trackr.live / text

‹ back to catalog

HULIANWANG DIGUI-110

NORAD 66920 · 2025-285F

PAYLOAD ACTIVE UNKNOWN

§ Identity

Operator
Country
PRC
Launch date
2025-12-06
Launch site
WSC
Launch vehicle
Mass (kg)
RCS (m²)

External: N2YO · Heavens-Above · Gunter

§ Orbital elements

Epoch: 2026-05-24T23:29:39.227136Z

Period
108.33 min
Inclination
50.0100°
Eccentricity
0.0000988
Mean motion
13.29325819 rev/d
Perigee alt
1,148.6 km
Apogee alt
1,150.1 km
Semi-major
7,527.4 km
B*
6.1280e-5
RAAN
229.1657°
Arg perigee
211.7956°
Mean anomaly
148.2857°
Rev number
2,297

§ Raw data

HULIANWANG DIGUI-1101 66920U 25285F   26144.97892624 -.00000096  00000+0  61280-4 0  99952 66920  50.0100 229.1657 0000988 211.7956 148.2857 13.29325819 22977

JSON: /api/v1/satellites/66920 · /tle

For live sub-satellite position, see the globe view (requires WebGL).

§ Visibility from observer

Set your observer location to see the next 7 days of passes ≥ 10°. The values pass through the URL so the page stays shareable.

No JS? Fill the form by hand. The geolocation button needs JavaScript.